Location: ?????????
(38.0736°N, 23.2119°E)
Time: 04:59:11
(UTC+00:00)

Milstar 3 - Pass Details

Date: 18 April 2024
Orbit: 1098 x 5146 km, 28.2° (Epoch: 22 May)

Event Time Altitude Azimuth Distance (km) Brightness Sun altitude
Rises 17:13:09 0° 233° (SW) 4,094 6.3 -2.1°
Reaches altitude 10° 17:15:42 10° 225° (SW) 3,308 5.7 -2.6°
Maximum altitude 17:23:12 40° 157° (SSE) 2,380 4.2 -4.0°
Drops below altitude 10° 17:35:55 10° 94° (E) 5,548 5.8 -6.4°
Enters shadow 17:39:32 - 90° (E) 6,594 6.2 -7.1°
